Zurück zum Katalog

BREEZE-M DEB

LostHEO
NORAD 38575·DEBRIS·🇷🇺 Russia

Gestartet Mar 14, 2008 von Baikonur Cosmodrome

Loading…

Nächste Überflüge (nächste 24 Stunden)

TLE

VeraltetSource: Space-Track

Epoche: Nov 6, 2024, 07:36 UTC

1 38575U 08011W   24311.31681497  .00482326  00000-0  31778+0 0  9998
2 38575  48.9935 349.5918 5912543 253.6845  36.7215  4.09579627130163

Verfolge BREEZE-M DEB in Echtzeit mit AllMySat

Download on the App Store